Location: *
(58.4167°N, 22.5000°E)
Time: 17:41:31
(UTC+00:00)

Cosmos 1464 Rocket - Pass Details

Date: 22 September 2019
Orbit: 953 x 1001 km, 82.9° (Epoch: 22 October)

Event Time Altitude Azimuth Distance (km) Brightness Sun altitude
Rises 22:27:26 0° 347° (NNW) 3,731 8.1 -31.4°
Reaches altitude 10° 22:29:58 10° 347° (NNW) 2,781 7.2 -31.4°
Enters shadow 22:36:00 80° 3° (N) 1,025 4.0 -31.4°
